Year,Month,Day,Hour,Minute,Value (Times are PST for temperature in C)
2021,08,13,00,00,19.60
2021,08,13,00,01,19.60
2021,08,13,00,02,19.60
2021,08,13,00,03,19.60
2021,08,13,00,04,19.60
2021,08,13,00,05,19.60
2021,08,13,00,06,19.60
2021,08,13,00,07,19.60
2021,08,13,00,08,19.60
2021,08,13,00,09,19.60
2021,08,13,00,10,19.60
2021,08,13,00,11,19.60
2021,08,13,00,12,19.60
2021,08,13,00,13,19.60
2021,08,13,00,14,19.50
2021,08,13,00,15,19.40
2021,08,13,00,16,19.10
2021,08,13,00,17,19.00
2021,08,13,00,18,18.80
2021,08,13,00,19,18.60
2021,08,13,00,20,18.50
2021,08,13,00,21,18.40
2021,08,13,00,22,18.30
2021,08,13,00,23,18.30
2021,08,13,00,24,18.30
2021,08,13,00,25,18.20
2021,08,13,00,26,18.20
2021,08,13,00,27,18.20
2021,08,13,00,28,18.30
2021,08,13,00,29,18.30
2021,08,13,00,30,18.30
2021,08,13,00,31,18.30
2021,08,13,00,32,18.30
2021,08,13,00,33,18.20
2021,08,13,00,34,18.20
2021,08,13,00,35,18.20
2021,08,13,00,36,18.10
2021,08,13,00,37,18.10
2021,08,13,00,38,18.10
2021,08,13,00,39,18.20
2021,08,13,00,40,18.20
2021,08,13,00,41,18.20
2021,08,13,00,42,18.10
2021,08,13,00,43,18.10
2021,08,13,00,44,18.10
2021,08,13,00,45,18.10
2021,08,13,00,46,18.20
2021,08,13,00,47,18.20
2021,08,13,00,48,18.20
2021,08,13,00,49,18.20
2021,08,13,00,50,18.20
2021,08,13,00,51,18.20
2021,08,13,00,52,18.20
2021,08,13,00,53,18.20
2021,08,13,00,54,18.20
2021,08,13,00,55,18.10
2021,08,13,00,56,18.10
2021,08,13,00,57,18.00
2021,08,13,00,58,17.90
2021,08,13,00,59,17.90
2021,08,13,01,00,17.80
2021,08,13,01,01,17.80
2021,08,13,01,02,17.70
2021,08,13,01,03,17.60
2021,08,13,01,04,17.50
2021,08,13,01,05,17.40
2021,08,13,01,06,17.30
2021,08,13,01,07,17.30
2021,08,13,01,08,17.30
2021,08,13,01,09,17.20
2021,08,13,01,10,17.20
2021,08,13,01,11,17.20
2021,08,13,01,12,17.20
2021,08,13,01,13,17.20
2021,08,13,01,14,17.20
2021,08,13,01,15,17.30
2021,08,13,01,16,17.30
2021,08,13,01,17,17.30
2021,08,13,01,18,17.30
2021,08,13,01,19,17.30
2021,08,13,01,20,17.30
2021,08,13,01,21,17.30
2021,08,13,01,22,17.30
2021,08,13,01,23,17.30
2021,08,13,01,24,17.30
2021,08,13,01,25,17.40
2021,08,13,01,26,17.40
2021,08,13,01,27,17.40
2021,08,13,01,28,17.40
2021,08,13,01,29,17.40
2021,08,13,01,30,17.40
2021,08,13,01,31,17.40
2021,08,13,01,32,17.40
2021,08,13,01,33,17.50
2021,08,13,01,34,17.50
2021,08,13,01,35,17.60
2021,08,13,01,36,17.60
2021,08,13,01,37,17.60
2021,08,13,01,38,17.70
2021,08,13,01,39,17.70
2021,08,13,01,40,17.80
2021,08,13,01,41,17.80
2021,08,13,01,42,17.90
2021,08,13,01,43,17.90
2021,08,13,01,44,17.90
2021,08,13,01,45,18.00
2021,08,13,01,46,18.10
2021,08,13,01,47,18.10
2021,08,13,01,48,18.10
2021,08,13,01,49,18.10
2021,08,13,01,50,18.10
2021,08,13,01,51,18.10
2021,08,13,01,52,18.10
2021,08,13,01,53,18.10
2021,08,13,01,54,18.10
2021,08,13,01,55,18.20
2021,08,13,01,56,18.20
2021,08,13,01,57,18.20
2021,08,13,01,58,18.20
2021,08,13,01,59,18.20
2021,08,13,02,00,18.20
2021,08,13,02,01,18.20
2021,08,13,02,02,18.20
2021,08,13,02,03,18.20
2021,08,13,02,04,18.20
2021,08,13,02,05,18.20
2021,08,13,02,06,18.20
2021,08,13,02,07,18.20
2021,08,13,02,08,18.20
2021,08,13,02,09,18.20
2021,08,13,02,10,18.20
2021,08,13,02,11,18.30
2021,08,13,02,12,18.30
2021,08,13,02,13,18.40
2021,08,13,02,14,18.40
2021,08,13,02,15,18.50
2021,08,13,02,16,18.60
2021,08,13,02,17,18.60
2021,08,13,02,18,18.70
2021,08,13,02,19,18.80
2021,08,13,02,20,18.80
2021,08,13,02,21,18.80
2021,08,13,02,22,18.90
2021,08,13,02,23,18.90
2021,08,13,02,24,18.90
2021,08,13,02,25,19.00
2021,08,13,02,26,19.00
2021,08,13,02,27,19.10
2021,08,13,02,28,19.10
2021,08,13,02,29,19.10
2021,08,13,02,30,19.10
2021,08,13,02,31,19.10
2021,08,13,02,32,19.10
2021,08,13,02,33,19.10
2021,08,13,02,34,19.10
2021,08,13,02,35,19.10
2021,08,13,02,36,19.10
2021,08,13,02,37,19.10
2021,08,13,02,38,19.10
2021,08,13,02,39,19.10
2021,08,13,02,40,19.10
2021,08,13,02,41,19.00
2021,08,13,02,42,19.00
2021,08,13,02,43,19.00
2021,08,13,02,44,18.90
2021,08,13,02,45,18.90
2021,08,13,02,46,18.90
2021,08,13,02,47,18.90
2021,08,13,02,48,18.90
2021,08,13,02,49,18.90
2021,08,13,02,50,18.90
2021,08,13,02,51,19.00
2021,08,13,02,52,19.00
2021,08,13,02,53,19.10
2021,08,13,02,54,19.20
2021,08,13,02,55,19.20
2021,08,13,02,56,19.30
2021,08,13,02,57,19.30
2021,08,13,02,58,19.30
2021,08,13,02,59,19.40
2021,08,13,03,00,19.40
2021,08,13,03,01,19.50
2021,08,13,03,02,19.40
2021,08,13,03,03,19.40
2021,08,13,03,04,19.20
2021,08,13,03,05,18.70
2021,08,13,03,06,18.10
2021,08,13,03,07,17.60
2021,08,13,03,08,17.10
2021,08,13,03,09,16.80
2021,08,13,03,10,16.60
2021,08,13,03,11,16.50
2021,08,13,03,12,16.40
2021,08,13,03,13,16.30
2021,08,13,03,14,16.30
2021,08,13,03,15,16.20
2021,08,13,03,16,16.20
2021,08,13,03,17,16.20
2021,08,13,03,18,16.20
2021,08,13,03,19,16.20
2021,08,13,03,20,16.20
2021,08,13,03,21,16.20
2021,08,13,03,22,16.20
2021,08,13,03,23,16.30
2021,08,13,03,24,16.30
2021,08,13,03,25,16.30
2021,08,13,03,26,16.30
2021,08,13,03,27,16.30
2021,08,13,03,28,16.30
2021,08,13,03,29,16.20
2021,08,13,03,30,16.20
2021,08,13,03,31,16.20
2021,08,13,03,32,16.20
2021,08,13,03,33,16.10
2021,08,13,03,34,16.10
2021,08,13,03,35,16.10
2021,08,13,03,36,16.10
2021,08,13,03,37,16.10
2021,08,13,03,38,16.10
2021,08,13,03,39,16.10
2021,08,13,03,40,16.10
2021,08,13,03,41,16.10
2021,08,13,03,42,16.00
2021,08,13,03,43,16.00
2021,08,13,03,44,15.90
2021,08,13,03,45,15.80
2021,08,13,03,46,15.80
2021,08,13,03,47,15.70
2021,08,13,03,48,15.70
2021,08,13,03,49,15.70
2021,08,13,03,50,15.60
2021,08,13,03,51,15.60
2021,08,13,03,52,15.60
2021,08,13,03,53,15.50
2021,08,13,03,54,15.50
2021,08,13,03,55,15.50
2021,08,13,03,56,15.50
2021,08,13,03,57,15.50
2021,08,13,03,58,15.50
2021,08,13,03,59,15.60
2021,08,13,04,00,15.60
2021,08,13,04,01,15.70
2021,08,13,04,02,15.70
2021,08,13,04,03,15.80
2021,08,13,04,04,15.80
2021,08,13,04,05,15.80
2021,08,13,04,06,15.80
2021,08,13,04,07,15.80
2021,08,13,04,08,15.70
2021,08,13,04,09,15.70
2021,08,13,04,10,15.70
2021,08,13,04,11,15.70
2021,08,13,04,12,15.60
2021,08,13,04,13,15.60
2021,08,13,04,14,15.60
2021,08,13,04,15,15.50
2021,08,13,04,16,15.50
2021,08,13,04,17,15.50
2021,08,13,04,18,15.50
2021,08,13,04,19,15.50
2021,08,13,04,20,15.40
2021,08,13,04,21,15.40
2021,08,13,04,22,15.40
2021,08,13,04,23,15.40
2021,08,13,04,24,15.40
2021,08,13,04,25,15.40
2021,08,13,04,26,15.40
2021,08,13,04,27,15.40
2021,08,13,04,28,15.40
2021,08,13,04,29,15.40
2021,08,13,04,30,15.40
2021,08,13,04,31,15.40
2021,08,13,04,32,15.40
2021,08,13,04,33,15.40
2021,08,13,04,34,15.40
2021,08,13,04,35,15.40
2021,08,13,04,36,15.40
2021,08,13,04,37,15.40
2021,08,13,04,38,15.40
2021,08,13,04,39,15.40
2021,08,13,04,40,15.40
2021,08,13,04,41,15.40
2021,08,13,04,42,15.40
2021,08,13,04,43,15.40
2021,08,13,04,44,15.40
2021,08,13,04,45,15.40
2021,08,13,04,46,15.50
2021,08,13,04,47,15.50
2021,08,13,04,48,15.50
2021,08,13,04,49,15.50
2021,08,13,04,50,15.60
2021,08,13,04,51,15.60
2021,08,13,04,52,15.60
2021,08,13,04,53,15.60
2021,08,13,04,54,15.70
2021,08,13,04,55,15.70
2021,08,13,04,56,15.70
2021,08,13,04,57,15.70
2021,08,13,04,58,15.70
2021,08,13,04,59,15.80
2021,08,13,05,00,15.80
2021,08,13,05,01,15.80
2021,08,13,05,02,15.80
2021,08,13,05,03,15.80
2021,08,13,05,04,15.80
2021,08,13,05,05,15.80
2021,08,13,05,06,15.90
2021,08,13,05,07,15.90
2021,08,13,05,08,16.00
2021,08,13,05,09,16.00
2021,08,13,05,10,16.10
2021,08,13,05,11,16.10
2021,08,13,05,12,16.20
2021,08,13,05,13,16.20
2021,08,13,05,14,16.30
2021,08,13,05,15,16.40
2021,08,13,05,16,16.50
2021,08,13,05,17,16.60
2021,08,13,05,18,16.70
2021,08,13,05,19,16.80
2021,08,13,05,20,16.80
2021,08,13,05,21,16.90
2021,08,13,05,22,16.90
2021,08,13,05,23,17.00
2021,08,13,05,24,17.00
2021,08,13,05,25,17.10
2021,08,13,05,26,17.10
2021,08,13,05,27,17.10
2021,08,13,05,28,17.10
2021,08,13,05,29,17.20
2021,08,13,05,30,17.20
2021,08,13,05,31,17.20
2021,08,13,05,32,17.20
2021,08,13,05,33,17.30
2021,08,13,05,34,17.30
2021,08,13,05,35,17.30
2021,08,13,05,36,17.40
2021,08,13,05,37,17.40
2021,08,13,05,38,17.50
2021,08,13,05,39,17.50
2021,08,13,05,40,17.60
2021,08,13,05,41,17.60
2021,08,13,05,42,17.70
2021,08,13,05,43,17.80
2021,08,13,05,44,17.90
2021,08,13,05,45,18.00
2021,08,13,05,46,18.10
2021,08,13,05,47,18.30
2021,08,13,05,48,18.40
2021,08,13,05,49,18.60
2021,08,13,05,50,18.70
2021,08,13,05,51,18.80
2021,08,13,05,52,18.90
2021,08,13,05,53,19.00
2021,08,13,05,54,19.10
2021,08,13,05,55,19.20
2021,08,13,05,56,19.20
2021,08,13,05,57,19.20
2021,08,13,05,58,19.20
2021,08,13,05,59,19.20
2021,08,13,06,00,19.20
2021,08,13,06,01,19.10
2021,08,13,06,02,19.10
2021,08,13,06,03,19.10
2021,08,13,06,04,19.10
2021,08,13,06,05,18.90
2021,08,13,06,06,18.80
2021,08,13,06,07,18.60
2021,08,13,06,08,18.40
2021,08,13,06,09,18.30
2021,08,13,06,10,18.10
2021,08,13,06,11,17.90
2021,08,13,06,12,17.60
2021,08,13,06,13,17.40
2021,08,13,06,14,17.20
2021,08,13,06,15,17.00
2021,08,13,06,16,16.80
2021,08,13,06,17,16.50
2021,08,13,06,18,16.30
2021,08,13,06,19,16.10
2021,08,13,06,20,15.90
2021,08,13,06,21,15.80
2021,08,13,06,22,15.70
2021,08,13,06,23,15.60
2021,08,13,06,24,15.50
2021,08,13,06,25,15.50
2021,08,13,06,26,15.40
2021,08,13,06,27,15.40
2021,08,13,06,28,15.40
2021,08,13,06,29,15.30
2021,08,13,06,30,15.30
2021,08,13,06,31,15.20
2021,08,13,06,32,15.20
2021,08,13,06,33,15.20
2021,08,13,06,34,15.10
2021,08,13,06,35,15.10
2021,08,13,06,36,15.00
2021,08,13,06,37,15.00
2021,08,13,06,38,14.90
2021,08,13,06,39,14.90
2021,08,13,06,40,14.90
2021,08,13,06,41,14.90
2021,08,13,06,42,14.90
2021,08,13,06,43,14.90
2021,08,13,06,44,14.90
2021,08,13,06,45,14.80
2021,08,13,06,46,14.80
2021,08,13,06,47,14.80
2021,08,13,06,48,14.90
2021,08,13,06,49,14.90
2021,08,13,06,50,14.90
2021,08,13,06,51,14.90
2021,08,13,06,52,14.90
2021,08,13,06,53,15.00
2021,08,13,06,54,15.00
2021,08,13,06,55,15.10
2021,08,13,06,56,15.10
2021,08,13,06,57,15.20
2021,08,13,06,58,15.20
2021,08,13,06,59,15.20
2021,08,13,07,00,15.30
2021,08,13,07,01,15.30
2021,08,13,07,02,15.30
2021,08,13,07,03,15.30
2021,08,13,07,04,15.30
2021,08,13,07,05,15.40
2021,08,13,07,06,15.40
2021,08,13,07,07,15.40
2021,08,13,07,08,15.50
2021,08,13,07,09,15.50
2021,08,13,07,10,15.60
2021,08,13,07,11,15.60
2021,08,13,07,12,15.50
2021,08,13,07,13,15.40
2021,08,13,07,14,15.30
2021,08,13,07,15,15.20
2021,08,13,07,16,15.10
2021,08,13,07,17,15.10
2021,08,13,07,18,15.10
2021,08,13,07,19,15.10
2021,08,13,07,20,15.10
2021,08,13,07,21,15.10
2021,08,13,07,22,15.00
2021,08,13,07,23,14.80
2021,08,13,07,24,14.70
2021,08,13,07,25,14.60
2021,08,13,07,26,14.50
2021,08,13,07,27,14.40
2021,08,13,07,28,14.30
2021,08,13,07,29,14.30
2021,08,13,07,30,14.20
2021,08,13,07,31,14.20
2021,08,13,07,32,14.20
2021,08,13,07,33,14.20
2021,08,13,07,34,14.20
2021,08,13,07,35,14.20
2021,08,13,07,36,14.20
2021,08,13,07,37,14.10
2021,08,13,07,38,14.10
2021,08,13,07,39,14.10
2021,08,13,07,40,14.10
2021,08,13,07,41,14.10
2021,08,13,07,42,14.20
2021,08,13,07,43,14.20
2021,08,13,07,44,14.20
2021,08,13,07,45,14.20
2021,08,13,07,46,14.20
2021,08,13,07,47,14.20
2021,08,13,07,48,14.20
2021,08,13,07,49,14.30
2021,08,13,07,50,14.30
2021,08,13,07,51,14.30
2021,08,13,07,52,14.30
2021,08,13,07,53,14.30
2021,08,13,07,54,14.30
2021,08,13,07,55,14.30
2021,08,13,07,56,14.30
2021,08,13,07,57,14.30
2021,08,13,07,58,14.30
2021,08,13,07,59,14.30
2021,08,13,08,00,14.40
2021,08,13,08,01,14.40
2021,08,13,08,02,14.40
2021,08,13,08,03,14.40
2021,08,13,08,04,14.40
2021,08,13,08,05,14.40
2021,08,13,08,06,14.50
2021,08,13,08,07,14.50
2021,08,13,08,08,14.60
2021,08,13,08,09,14.60
2021,08,13,08,10,14.70
2021,08,13,08,11,14.70
2021,08,13,08,12,14.80
2021,08,13,08,13,14.80
2021,08,13,08,14,14.90
2021,08,13,08,15,15.00
2021,08,13,08,16,15.00
2021,08,13,08,17,15.10
2021,08,13,08,18,15.10
2021,08,13,08,19,15.20
2021,08,13,08,20,15.20
2021,08,13,08,21,15.30
2021,08,13,08,22,15.40
2021,08,13,08,23,15.50
2021,08,13,08,24,15.60
2021,08,13,08,25,15.70
2021,08,13,08,26,15.80
2021,08,13,08,27,15.80
2021,08,13,08,28,15.90
2021,08,13,08,29,16.00
2021,08,13,08,30,16.20
2021,08,13,08,31,16.30
2021,08,13,08,32,16.30
2021,08,13,08,33,16.30
2021,08,13,08,34,16.20
2021,08,13,08,35,16.20
2021,08,13,08,36,16.20
2021,08,13,08,37,16.20
2021,08,13,08,38,16.20
2021,08,13,08,39,16.20
2021,08,13,08,40,16.20
2021,08,13,08,41,16.30
2021,08,13,08,42,16.30
2021,08,13,08,43,16.40
2021,08,13,08,44,16.50
2021,08,13,08,45,16.60
2021,08,13,08,46,16.60
2021,08,13,08,47,16.70
2021,08,13,08,48,16.80
2021,08,13,08,49,16.90
2021,08,13,08,50,16.90
2021,08,13,08,51,16.80
2021,08,13,08,52,16.70
2021,08,13,08,53,16.60
2021,08,13,08,54,16.50
2021,08,13,08,55,16.40
2021,08,13,08,56,16.30
2021,08,13,08,57,16.30
2021,08,13,08,58,16.20
2021,08,13,08,59,16.10
2021,08,13,09,00,16.10
2021,08,13,09,01,16.00
2021,08,13,09,02,16.00
2021,08,13,09,03,15.90
2021,08,13,09,04,15.90
2021,08,13,09,05,15.90
2021,08,13,09,06,15.90
2021,08,13,09,07,15.80
2021,08,13,09,08,15.80
2021,08,13,09,09,15.80
2021,08,13,09,10,15.80
2021,08,13,09,11,15.80
2021,08,13,09,12,15.90
2021,08,13,09,13,15.90
2021,08,13,09,14,15.90
2021,08,13,09,15,15.90
2021,08,13,09,16,15.90
2021,08,13,09,17,15.90
2021,08,13,09,18,15.90
2021,08,13,09,19,15.90
2021,08,13,09,20,15.90
2021,08,13,09,21,15.90
2021,08,13,09,22,15.90
2021,08,13,09,23,15.90
2021,08,13,09,24,15.90
2021,08,13,09,25,15.90
2021,08,13,09,26,15.90
2021,08,13,09,27,15.90
2021,08,13,09,28,15.90
2021,08,13,09,29,16.00
2021,08,13,09,30,16.00
2021,08,13,09,31,16.10
2021,08,13,09,32,16.10
2021,08,13,09,33,16.20
2021,08,13,09,34,16.20
2021,08,13,09,35,16.30
2021,08,13,09,36,16.30
2021,08,13,09,37,16.30
2021,08,13,09,38,16.40
2021,08,13,09,39,16.50
2021,08,13,09,40,16.50
2021,08,13,09,41,16.60
2021,08,13,09,42,16.70
2021,08,13,09,43,16.70
2021,08,13,09,44,16.80
2021,08,13,09,45,16.80
2021,08,13,09,46,16.90
2021,08,13,09,47,17.00
2021,08,13,09,48,17.10
2021,08,13,09,49,17.20
2021,08,13,09,50,17.30
2021,08,13,09,51,17.50
2021,08,13,09,52,17.60
2021,08,13,09,53,17.80
2021,08,13,09,54,17.90
2021,08,13,09,55,18.10
2021,08,13,09,56,18.20
2021,08,13,09,57,18.30
2021,08,13,09,58,18.40
2021,08,13,09,59,18.40
2021,08,13,10,00,18.50
2021,08,13,10,01,18.60
2021,08,13,10,02,18.60
2021,08,13,10,03,18.60
2021,08,13,10,04,18.60
2021,08,13,10,05,18.60
2021,08,13,10,06,18.60
2021,08,13,10,07,18.60
2021,08,13,10,08,18.60
2021,08,13,10,09,18.50
2021,08,13,10,10,18.50
2021,08,13,10,11,18.50
2021,08,13,10,12,18.50
2021,08,13,10,13,18.60
2021,08,13,10,14,18.60
2021,08,13,10,15,18.50
2021,08,13,10,16,18.50
2021,08,13,10,17,18.40
2021,08,13,10,18,18.40
2021,08,13,10,19,18.30
2021,08,13,10,20,18.20
2021,08,13,10,21,18.20
2021,08,13,10,22,18.10
2021,08,13,10,23,18.00
2021,08,13,10,24,17.90
2021,08,13,10,25,17.80
2021,08,13,10,26,17.70
2021,08,13,10,27,17.60
2021,08,13,10,28,17.40
2021,08,13,10,29,17.30
2021,08,13,10,30,17.20
2021,08,13,10,31,17.10
2021,08,13,10,32,17.00
2021,08,13,10,33,16.90
2021,08,13,10,34,16.80
2021,08,13,10,35,16.70
2021,08,13,10,36,16.60
2021,08,13,10,37,16.40
2021,08,13,10,38,16.40
2021,08,13,10,39,16.30
2021,08,13,10,40,16.30
2021,08,13,10,41,16.30
2021,08,13,10,42,16.30
2021,08,13,10,43,16.30
2021,08,13,10,44,16.40
2021,08,13,10,45,16.40
2021,08,13,10,46,16.40
2021,08,13,10,47,16.40
2021,08,13,10,48,16.40
2021,08,13,10,49,16.30
2021,08,13,10,50,16.30
2021,08,13,10,51,16.20
2021,08,13,10,52,16.20
2021,08,13,10,53,16.10
2021,08,13,10,54,16.10
2021,08,13,10,55,16.00
2021,08,13,10,56,15.90
2021,08,13,10,57,15.80
2021,08,13,10,58,15.70
2021,08,13,10,59,15.60
2021,08,13,11,00,15.50
2021,08,13,11,01,15.40
2021,08,13,11,02,15.40
2021,08,13,11,03,15.40
2021,08,13,11,04,15.40
2021,08,13,11,05,15.50
2021,08,13,11,06,15.50
2021,08,13,11,07,15.60
2021,08,13,11,08,15.70
2021,08,13,11,09,15.80
2021,08,13,11,10,15.80
2021,08,13,11,11,15.90
2021,08,13,11,12,16.00
2021,08,13,11,13,16.10
2021,08,13,11,14,16.20
2021,08,13,11,15,16.30
2021,08,13,11,16,16.30
2021,08,13,11,17,16.40
2021,08,13,11,18,16.50
2021,08,13,11,19,16.50
2021,08,13,11,20,16.60
2021,08,13,11,21,16.60
2021,08,13,11,22,16.60
2021,08,13,11,23,16.70
2021,08,13,11,24,16.70
2021,08,13,11,25,16.70
2021,08,13,11,26,16.70
2021,08,13,11,27,16.70
2021,08,13,11,28,16.70
2021,08,13,11,29,16.70
2021,08,13,11,30,16.70
2021,08,13,11,31,16.70
2021,08,13,11,32,16.70
2021,08,13,11,33,16.70
2021,08,13,11,34,16.80
2021,08,13,11,35,16.80
2021,08,13,11,36,16.90
2021,08,13,11,37,16.90
2021,08,13,11,38,17.00
2021,08,13,11,39,17.10
2021,08,13,11,40,17.20
2021,08,13,11,41,17.30
2021,08,13,11,42,17.40
2021,08,13,11,43,17.50
2021,08,13,11,44,17.70
2021,08,13,11,45,17.80
2021,08,13,11,46,17.80
2021,08,13,11,47,17.90
2021,08,13,11,48,17.90
2021,08,13,11,49,17.90
2021,08,13,11,50,17.80
2021,08,13,11,51,17.80
2021,08,13,11,52,17.70
2021,08,13,11,53,17.60
2021,08,13,11,54,17.50
2021,08,13,11,55,17.40
2021,08,13,11,56,17.30
2021,08,13,11,57,17.30
2021,08,13,11,58,17.30
2021,08,13,11,59,17.30
2021,08,13,12,00,17.30
2021,08,13,12,01,17.30
2021,08,13,12,02,17.30
2021,08,13,12,03,17.30
2021,08,13,12,04,17.30
2021,08,13,12,05,17.30
2021,08,13,12,06,17.40
2021,08,13,12,07,17.40
2021,08,13,12,08,17.40
2021,08,13,12,09,17.50
2021,08,13,12,10,17.50
2021,08,13,12,11,17.50
2021,08,13,12,12,17.40
2021,08,13,12,13,17.40
2021,08,13,12,14,17.40
2021,08,13,12,15,17.40
2021,08,13,12,16,17.40
2021,08,13,12,17,17.30
2021,08,13,12,18,17.20
2021,08,13,12,19,17.20
2021,08,13,12,20,17.10
2021,08,13,12,21,17.00
2021,08,13,12,22,17.00
2021,08,13,12,23,16.90
2021,08,13,12,24,16.70
2021,08,13,12,25,16.60
2021,08,13,12,26,16.40
2021,08,13,12,27,16.30
2021,08,13,12,28,16.20
2021,08,13,12,29,16.10
2021,08,13,12,30,16.10
2021,08,13,12,31,16.00
2021,08,13,12,32,16.00
2021,08,13,12,33,15.90
2021,08,13,12,34,15.90
2021,08,13,12,35,16.00
2021,08,13,12,36,16.00
2021,08,13,12,37,16.00
2021,08,13,12,38,16.00
2021,08,13,12,39,16.00
2021,08,13,12,40,16.00
2021,08,13,12,41,16.00
2021,08,13,12,42,16.00
2021,08,13,12,43,16.00
2021,08,13,12,44,16.00
2021,08,13,12,45,16.00
2021,08,13,12,46,16.00
2021,08,13,12,47,16.00
2021,08,13,12,48,16.00
2021,08,13,12,49,16.00
2021,08,13,12,50,16.00
2021,08,13,12,51,16.00
2021,08,13,12,52,16.10
2021,08,13,12,53,16.10
2021,08,13,12,54,16.10
2021,08,13,12,55,16.10
2021,08,13,12,56,16.10
2021,08,13,12,57,16.10
2021,08,13,12,58,16.10
2021,08,13,12,59,16.10
2021,08,13,13,00,16.20
2021,08,13,13,01,16.20
2021,08,13,13,02,16.30
2021,08,13,13,03,16.30
2021,08,13,13,04,16.30
2021,08,13,13,05,16.40
2021,08,13,13,06,16.40
2021,08,13,13,07,16.50
2021,08,13,13,08,16.50
2021,08,13,13,09,16.60
2021,08,13,13,10,16.70
2021,08,13,13,11,16.70
2021,08,13,13,12,16.80
2021,08,13,13,13,16.70
2021,08,13,13,14,16.70
2021,08,13,13,15,16.70
2021,08,13,13,16,16.60
2021,08,13,13,17,16.50
2021,08,13,13,18,16.50
2021,08,13,13,19,16.50
2021,08,13,13,20,16.50
2021,08,13,13,21,16.60
2021,08,13,13,22,16.60
2021,08,13,13,23,16.60
2021,08,13,13,24,16.70
2021,08,13,13,25,16.70
2021,08,13,13,26,16.70
2021,08,13,13,27,16.70
2021,08,13,13,28,16.60
2021,08,13,13,29,16.60
2021,08,13,13,30,16.60
2021,08,13,13,31,16.60
2021,08,13,13,32,16.50
2021,08,13,13,33,16.50
2021,08,13,13,34,16.40
2021,08,13,13,35,16.40
2021,08,13,13,36,16.30
2021,08,13,13,37,16.30
2021,08,13,13,38,16.30
2021,08,13,13,39,16.30
2021,08,13,13,40,16.40
2021,08,13,13,41,16.40
2021,08,13,13,42,16.50
2021,08,13,13,43,16.50
2021,08,13,13,44,16.60
2021,08,13,13,45,16.70
2021,08,13,13,46,16.70
2021,08,13,13,47,16.70
2021,08,13,13,48,16.80
2021,08,13,13,49,16.80
2021,08,13,13,50,16.80
2021,08,13,13,51,16.80
2021,08,13,13,52,16.90
2021,08,13,13,53,16.90
2021,08,13,13,54,17.00
2021,08,13,13,55,17.10
2021,08,13,13,56,17.20
2021,08,13,13,57,17.30
2021,08,13,13,58,17.40
2021,08,13,13,59,17.50
2021,08,13,14,00,17.50
2021,08,13,14,01,17.60
2021,08,13,14,02,17.60
2021,08,13,14,03,17.60
2021,08,13,14,04,17.50
2021,08,13,14,05,17.50
2021,08,13,14,06,17.40
2021,08,13,14,07,17.30
2021,08,13,14,08,17.10
2021,08,13,14,09,17.00
2021,08,13,14,10,16.90
2021,08,13,14,11,16.80
2021,08,13,14,12,16.70
2021,08,13,14,13,16.70
2021,08,13,14,14,16.70
2021,08,13,14,15,16.70
2021,08,13,14,16,16.70
2021,08,13,14,17,16.70
2021,08,13,14,18,16.70
2021,08,13,14,19,16.70
2021,08,13,14,20,16.70
2021,08,13,14,21,16.70
2021,08,13,14,22,16.60
2021,08,13,14,23,16.60
2021,08,13,14,24,16.60
2021,08,13,14,25,16.60
2021,08,13,14,26,16.60
2021,08,13,14,27,16.70
2021,08,13,14,28,16.70
2021,08,13,14,29,16.80
2021,08,13,14,30,16.80
2021,08,13,14,31,16.90
2021,08,13,14,32,17.00
2021,08,13,14,33,17.10
2021,08,13,14,34,17.10
2021,08,13,14,35,17.20
2021,08,13,14,36,17.30
2021,08,13,14,37,17.40
2021,08,13,14,38,17.40
2021,08,13,14,39,17.60
2021,08,13,14,40,17.70
2021,08,13,14,41,17.70
2021,08,13,14,42,17.80
2021,08,13,14,43,17.90
2021,08,13,14,44,18.00
2021,08,13,14,45,18.10
2021,08,13,14,46,18.10
2021,08,13,14,47,18.20
2021,08,13,14,48,18.20
2021,08,13,14,49,18.20
2021,08,13,14,50,18.20
2021,08,13,14,51,18.10
2021,08,13,14,52,18.10
2021,08,13,14,53,18.10
2021,08,13,14,54,18.00
2021,08,13,14,55,18.00
2021,08,13,14,56,18.00
2021,08,13,14,57,18.10
2021,08,13,14,58,18.10
2021,08,13,14,59,18.10
2021,08,13,15,00,18.10
2021,08,13,15,01,18.20
2021,08,13,15,02,18.20
2021,08,13,15,03,18.30
2021,08,13,15,04,18.40
2021,08,13,15,05,18.50
2021,08,13,15,06,18.60
2021,08,13,15,07,18.70
2021,08,13,15,08,18.70
2021,08,13,15,09,18.80
2021,08,13,15,10,18.80
2021,08,13,15,11,18.90
2021,08,13,15,12,18.90
2021,08,13,15,13,19.00
2021,08,13,15,14,19.00
2021,08,13,15,15,19.10
2021,08,13,15,16,19.10
2021,08,13,15,17,19.10
2021,08,13,15,18,19.10
2021,08,13,15,19,19.20
2021,08,13,15,20,19.20
2021,08,13,15,21,19.30
2021,08,13,15,22,19.40
2021,08,13,15,23,19.60
2021,08,13,15,24,19.70
2021,08,13,15,25,19.80
2021,08,13,15,26,19.90
2021,08,13,15,27,20.00
2021,08,13,15,28,20.20
2021,08,13,15,29,20.30
2021,08,13,15,30,20.40
2021,08,13,15,31,20.60
2021,08,13,15,32,20.90
2021,08,13,15,33,21.10
2021,08,13,15,34,21.30
2021,08,13,15,35,21.50
2021,08,13,15,36,21.70
2021,08,13,15,37,22.00
2021,08,13,15,38,22.30
2021,08,13,15,39,22.70
2021,08,13,15,40,23.10
2021,08,13,15,41,23.50
2021,08,13,15,42,23.90
2021,08,13,15,43,24.30
2021,08,13,15,44,24.60
2021,08,13,15,45,24.90
2021,08,13,15,46,25.20
2021,08,13,15,47,25.50
2021,08,13,15,48,25.80
2021,08,13,15,49,26.00
2021,08,13,15,50,26.20
2021,08,13,15,51,26.40
2021,08,13,15,52,26.60
2021,08,13,15,53,26.70
2021,08,13,15,54,26.90
2021,08,13,15,55,27.10
2021,08,13,15,56,27.30
2021,08,13,15,57,27.50
2021,08,13,15,58,27.60
2021,08,13,15,59,27.70
2021,08,13,16,00,27.80
2021,08,13,16,01,27.90
2021,08,13,16,02,27.90
2021,08,13,16,03,27.90
2021,08,13,16,04,28.00
2021,08,13,16,05,28.00
2021,08,13,16,06,28.10
2021,08,13,16,07,28.10
2021,08,13,16,08,28.10
2021,08,13,16,09,28.20
2021,08,13,16,10,28.20
2021,08,13,16,11,28.20
2021,08,13,16,12,28.20
2021,08,13,16,13,28.20
2021,08,13,16,14,28.20
2021,08,13,16,15,28.20
2021,08,13,16,16,28.30
2021,08,13,16,17,28.30
2021,08,13,16,18,28.30
2021,08,13,16,19,28.30
2021,08,13,16,20,28.30
2021,08,13,16,21,28.30
2021,08,13,16,22,28.30
2021,08,13,16,23,28.30
2021,08,13,16,24,28.30
2021,08,13,16,25,28.30
2021,08,13,16,26,28.30
2021,08,13,16,27,28.30
2021,08,13,16,28,28.20
2021,08,13,16,29,28.20
2021,08,13,16,30,28.20
2021,08,13,16,31,28.20
2021,08,13,16,32,28.20
2021,08,13,16,33,28.20
2021,08,13,16,34,28.20
2021,08,13,16,35,28.10
2021,08,13,16,36,28.10
2021,08,13,16,37,28.10
2021,08,13,16,38,28.10
2021,08,13,16,39,28.10
2021,08,13,16,40,28.10
2021,08,13,16,41,28.10
2021,08,13,16,42,28.00
2021,08,13,16,43,28.00
2021,08,13,16,44,28.00
2021,08,13,16,45,27.80
2021,08,13,16,46,27.30
2021,08,13,16,47,26.60
2021,08,13,16,48,25.70
2021,08,13,16,49,24.80
2021,08,13,16,50,24.00
2021,08,13,16,51,23.20
2021,08,13,16,52,22.50
2021,08,13,16,53,21.80
2021,08,13,16,54,21.20
2021,08,13,16,55,20.70
2021,08,13,16,56,20.20
2021,08,13,16,57,19.80
2021,08,13,16,58,19.60
2021,08,13,16,59,19.20
2021,08,13,17,00,18.90
2021,08,13,17,01,18.70
2021,08,13,17,02,18.50
2021,08,13,17,03,18.40
2021,08,13,17,04,18.30
2021,08,13,17,05,18.30
2021,08,13,17,06,18.40
2021,08,13,17,07,18.40
2021,08,13,17,08,18.50
2021,08,13,17,09,18.60
2021,08,13,17,10,18.50
2021,08,13,17,11,18.40
2021,08,13,17,12,18.30
2021,08,13,17,13,18.30
2021,08,13,17,14,18.20
2021,08,13,17,15,18.20
2021,08,13,17,16,18.10
2021,08,13,17,17,18.00
2021,08,13,17,18,18.00
2021,08,13,17,19,17.90